Holland, MI

7:50 PM EST on December 15, 2017 (GMT -0500)
Tulip City

Weather History for KBIV - February, 2013

Change the Weather History Date:

Friday, February 22, 2013

  Actual Average Record
Temperature  
Mean Temperature 30 °F 30 °F  
Max Temperature 36 °F 37 °F 65 °F (2017)
Min Temperature 23 °F 23 °F -2 °F (1978)
Degree Days  
Heating Degree Days 35 35  
Month to date heating degree days 881 822  
Since 1 July heating degree days 4057 4296  
Cooling Degree Days 0 0  
Month to date cooling degree days 0 0  
Year to date cooling degree days 0 0  
Moisture  
Dew Point 24 °F    
Average Humidity 75    
Maximum Humidity 82    
Minimum Humidity 68    
Precipitation  
Precipitation T in 0.07 in 1.21 in (1974)
Month to date precipitation 1.83 1.34  
Year to date precipitation 4.99 3.43  
Sea Level Pressure  
Sea Level Pressure 29.91 in    
Wind  
Wind Speed 13 mph (SE)    
Max Wind Speed 21 mph    
Max Gust Speed 29 mph    
Visibility 4 miles    
Events Rain , Snow    
T = Trace of Precipitation, MM = Missing Value Source: NWS Daily Summary

Daily Weather History Graph

Daily Weather History Graph

Search for Another Location

Airport or City:

Trip Planner

Search our weather history database for the weather conditions in past years. The results will help you decide how hot, cold, wet, or windy it might be!

Date:

Astronomy

Feb. 22, 2013 Rise Set
Actual Time 7:30 AM EST 6:25 PM EST
Civil Twilight 7:02 AM EST 6:54 PM EST
Nautical Twilight 6:29 AM EST 7:27 PM EST
Astronomical Twilight 5:56 AM EST 7:59 PM EST
Moon 3:33 PM EST (2/22) 5:18 AM EST (2/22)
Length of Visible Light 11h 51m
Length of Day
10h 54m
Waxing Gibbous, 90% of the Moon is Illuminated
Feb 22
Waxing Gibbous
Feb 25
Full
Mar 4
Last Quarter
Mar 11
New
Mar 19
First Quarter

Hourly Weather History & Observations

Time (EST) Temp. Windchill Dew Point Humidity Pressure Visibility Wind Dir Wind Speed Gust Speed Precip Events Conditions
12:53 AM 24.1 °F 10.6 °F 15.1 °F 69% 30.15 in 10.0 mi East 17.3 mph - N/A   Overcast
1:53 AM 24.1 °F 11.5 °F 15.1 °F 69% 30.15 in 10.0 mi East 15.0 mph 23.0 mph N/A   Overcast
3:21 AM 24.8 °F 14.6 °F 15.8 °F 69% 30.07 in 2.5 mi East 10.4 mph - 0.00 in Snow Light Snow
3:28 AM 24.8 °F 13.4 °F 15.8 °F 69% 30.07 in 1.2 mi East 12.7 mph - 0.00 in Snow Light Snow
3:39 AM 23.0 °F 11.1 °F 17.6 °F 80% 30.06 in 0.8 mi East 12.7 mph - 0.00 in Snow Light Snow
3:53 AM 23.0 °F 10.6 °F 18.0 °F 81% 30.06 in 0.8 mi ENE 13.8 mph 21.9 mph 0.00 in Snow Light Snow
4:05 AM 23.0 °F 11.1 °F 17.6 °F 80% 30.02 in 0.5 mi ENE 12.7 mph - 0.00 in Snow Snow
4:21 AM 23.0 °F 10.1 °F 17.6 °F 80% 30.00 in 0.8 mi ENE 15.0 mph - 0.00 in Snow Light Snow
4:44 AM 24.8 °F 12.9 °F 17.6 °F 74% 29.97 in 1.0 mi ENE 13.8 mph 24.2 mph 0.00 in Snow Light Snow
4:53 AM 24.1 °F 11.5 °F 19.0 °F 81% 30.00 in 0.8 mi ENE 15.0 mph 24.2 mph 0.00 in Snow Light Snow
5:41 AM 24.8 °F 11.1 °F 19.4 °F 80% 29.94 in 0.5 mi East 18.4 mph 28.8 mph 0.00 in Snow Snow
5:53 AM 25.0 °F 11.7 °F 19.9 °F 81% 29.97 in 0.8 mi East 17.3 mph 25.3 mph 0.00 in Snow Light Snow
6:18 AM 26.6 °F 13.1 °F 21.2 °F 80% 29.92 in 1.0 mi East 19.6 mph - 0.00 in Snow Light Snow
6:40 AM 26.6 °F 13.8 °F 21.2 °F 80% 29.92 in 1.5 mi East 17.3 mph - 0.00 in Snow Light Snow
6:53 AM 26.1 °F 12.0 °F 21.0 °F 81% 29.96 in 1.5 mi East 20.7 mph 26.5 mph 0.00 in Snow Light Snow
6:58 AM 26.6 °F 13.4 °F 21.2 °F 80% 29.93 in 1.2 mi East 18.4 mph 26.5 mph 0.00 in Snow Light Snow
7:15 AM 26.6 °F 14.3 °F 21.2 °F 80% 29.93 in 0.8 mi East 16.1 mph - 0.00 in Snow Light Snow
7:23 AM 26.6 °F 13.4 °F 21.2 °F 80% 29.93 in 0.2 mi East 18.4 mph - 0.00 in Snow Heavy Snow
7:43 AM 26.6 °F 13.4 °F 21.2 °F 80% 29.92 in 1.0 mi East 18.4 mph - 0.00 in Snow Light Snow
7:51 AM 26.6 °F 13.1 °F 21.2 °F 80% 29.92 in 1.0 mi East 19.6 mph - 0.00 in Snow Light Snow
7:53 AM 26.1 °F 13.1 °F 21.0 °F 81% 29.95 in 1.0 mi East 17.3 mph - 0.00 in Snow Light Snow
8:03 AM 26.6 °F 13.8 °F 21.2 °F 80% 29.92 in 1.2 mi East 17.3 mph - 0.00 in Snow Light Snow
8:29 AM 26.6 °F 15.7 °F 21.2 °F 80% 29.92 in 1.5 mi East 12.7 mph 21.9 mph 0.00 in Snow Light Snow
8:49 AM 26.6 °F 13.8 °F 21.2 °F 80% 29.91 in 3.0 mi ESE 17.3 mph - 0.00 in   Haze
8:53 AM 26.1 °F 14.0 °F 21.0 °F 81% 29.94 in 4.0 mi ESE 15.0 mph - 0.00 in   Haze
9:53 AM 27.0 °F 14.7 °F 19.9 °F 75% 29.92 in 10.0 mi East 16.1 mph - 0.00 in   Overcast
10:08 AM 26.6 °F 13.8 °F 19.4 °F 74% 29.88 in 10.0 mi East 17.3 mph - N/A   Overcast
10:53 AM 28.0 °F 17.0 °F 19.9 °F 72% 29.91 in 8.0 mi East 13.8 mph - N/A   Overcast
11:53 AM 28.0 °F 17.5 °F 21.9 °F 78% 29.91 in 5.0 mi ESE 12.7 mph - N/A   Haze
12:53 PM 28.9 °F 19.8 °F 23.0 °F 78% 29.89 in 6.0 mi ESE 10.4 mph - N/A   Haze
1:30 PM 28.4 °F 18.5 °F 23.0 °F 80% 29.85 in 2.0 mi ESE 11.5 mph - 0.00 in Snow Light Snow
1:44 PM 30.2 °F 21.9 °F 24.8 °F 80% 29.85 in 1.5 mi ESE 9.2 mph - 0.00 in Snow Light Snow
1:53 PM 30.0 °F 21.7 °F 24.1 °F 79% 29.88 in 1.5 mi ESE 9.2 mph - 0.00 in Snow Light Snow
2:22 PM 30.2 °F 23.4 °F 24.8 °F 80% 29.84 in 1.2 mi ESE 6.9 mph - 0.00 in Snow Light Snow
2:53 PM 30.0 °F 21.7 °F 25.0 °F 82% 29.86 in 1.8 mi ESE 9.2 mph - 0.00 in Snow Light Snow
2:59 PM 30.2 °F 22.6 °F 24.8 °F 80% 29.83 in 2.0 mi SE 8.1 mph - 0.00 in Snow Light Snow
3:10 PM 30.2 °F 22.6 °F 24.8 °F 80% 29.82 in 1.5 mi ESE 8.1 mph - 0.00 in Snow Light Snow
3:21 PM 30.2 °F 22.6 °F 24.8 °F 80% 29.83 in 2.5 mi SE 8.1 mph - 0.00 in Snow Light Snow
3:28 PM 30.2 °F 24.3 °F 26.6 °F 86% 29.83 in 3.0 mi SE 5.8 mph - 0.00 in   Haze
3:53 PM 30.9 °F 23.5 °F 26.1 °F 82% 29.86 in 2.5 mi SE 8.1 mph - 0.00 in   Haze
4:24 PM 32.0 °F 26.4 °F 26.6 °F 80% 29.83 in 2.5 mi SE 5.8 mph - 0.00 in Rain Light Freezing Rain
4:53 PM 32.0 °F 25.6 °F 28.0 °F 85% 29.86 in 2.5 mi SSE 6.9 mph - 0.00 in Rain Light Freezing Rain
5:53 PM 33.1 °F 26.9 °F 28.9 °F 85% 29.86 in 2.5 mi SSE 6.9 mph - 0.00 in Rain Light Freezing Rain
6:14 PM 33.8 °F 27.0 °F 28.4 °F 81% 29.83 in 1.2 mi SSE 8.1 mph - 0.00 in Snow Light Snow
6:26 PM 33.8 °F 27.7 °F 28.4 °F 81% 29.83 in 2.0 mi SSE 6.9 mph - 0.00 in Snow Light Snow
6:35 PM 33.8 °F 27.7 °F 28.4 °F 81% 29.83 in 3.0 mi SSE 6.9 mph - 0.00 in Snow Light Snow
6:43 PM 33.8 °F 27.0 °F 30.2 °F 87% 29.83 in 1.8 mi SSE 8.1 mph - 0.00 in Snow Light Snow
6:53 PM 33.1 °F 26.1 °F 30.0 °F 89% 29.86 in 1.5 mi SSE 8.1 mph - 0.00 in Snow Light Snow
7:02 PM 33.8 °F 28.6 °F 30.2 °F 87% 29.84 in 2.0 mi SSE 5.8 mph - 0.00 in Snow Light Snow
7:16 PM 33.8 °F 27.7 °F 30.2 °F 87% 29.84 in 1.5 mi South 6.9 mph - 0.00 in Snow Light Snow
7:35 PM 35.6 °F 29.9 °F 30.2 °F 81% 29.84 in 2.5 mi SW 6.9 mph - 0.00 in Snow Light Snow
7:45 PM 35.6 °F 29.9 °F 30.2 °F 81% 29.84 in 4.0 mi SW 6.9 mph - 0.00 in Snow Light Snow
7:53 PM 35.1 °F 29.3 °F 30.9 °F 85% 29.86 in 5.0 mi SW 6.9 mph - 0.00 in Snow Light Snow
8:18 PM 35.6 °F 28.6 °F 30.2 °F 81% 29.84 in 8.0 mi SW 9.2 mph - 0.00 in   Overcast
8:53 PM 36.0 °F 27.5 °F 30.0 °F 79% 29.87 in 9.0 mi SW 12.7 mph - 0.00 in   Overcast
9:53 PM 35.1 °F 25.2 °F 28.0 °F 76% 29.89 in 10.0 mi SW 16.1 mph - N/A   Overcast
10:02 PM 35.6 °F 25.9 °F 28.4 °F 75% 29.86 in 10.0 mi SW 16.1 mph - N/A   Overcast
10:33 PM 33.8 °F 23.9 °F 28.4 °F 81% 29.86 in 10.0 mi SW 15.0 mph - N/A   Overcast
10:53 PM 34.0 °F 23.8 °F 27.0 °F 75% 29.89 in 10.0 mi SW 16.1 mph - N/A   Overcast
11:07 PM 33.8 °F 23.5 °F 26.6 °F 75% 29.86 in 10.0 mi WSW 16.1 mph - N/A   Overcast
11:40 PM 33.8 °F 24.3 °F 26.6 °F 75% 29.86 in 10.0 mi SW 13.8 mph - N/A   Overcast
11:53 PM 33.1 °F 23.4 °F 27.0 °F 78% 29.88 in 9.0 mi SW 13.8 mph - N/A   Overcast